Regional Weather Roundup
Issued by NWS

Home | Current Version | Previous Version | Text Only | Print | Product List | Glossary On
Versions: 1 2 3 4 5 6 7 8 9 10 11 12 13 14 15 16 17 18 19 20 21 22 23 24 25 26 27 28 29 30 31 32 33 34 35 36 37 38 39 40 41 42 43 44 45 46 47 48 49 50
000
ASUS42 KFFC 012003
RWRGA
WEATHER ROUNDUP FOR GEORGIA
NATIONAL WEATHER SERVICE PEACHTREE CITY GA
400 PM EDT TUE SEP 01 2015

NOTE: "FAIR" INDICATES FEW OR NO CLOUDS BELOW 12,000 FEET WITH NO
SIGNIFICANT WEATHER AND/OR OBSTRUCTIONS TO VISIBILITY.

* = USE WITH CAUTION. THE STATIONS MARKED WITH AN ASTERISK MAY NOT
REPORT WEATHER SUCH AS PRECIPITATION, FOG, OR THUNDER AND ARE NOT
QUALITY CONTROLLED BY NWS.

THE REMARK "TC" DENOTES TEMPERATURE READING IN DEGREES CELSIUS.

GAZ001>058-012100-
NORTH GEORGIA

CITY           SKY/WX    TMP DP  RH WIND       PRES   REMARKS
ATLANTA        PTSUNNY   86  64  47 NE5       30.11S
ATHENS         MOSUNNY   85  67  54 CALM      30.10F
CHAMBLEE       MOSUNNY   86  67  52 SE5       30.10F
PEACHTREE CITY PTSUNNY   85  68  56 CALM      30.11S
ROME           MOSUNNY   88  66  48 CALM      30.08F HX  90
WEST ATLANTA   SUNNY     87  66  49 SW3       30.10S
GAINESVILLE    MOSUNNY   86  65  49 E3        30.14F
CARTERSVILLE   MOSUNNY   90  63  40 VRB5      30.09F HX  91


CITY           SKY/WX    TMP DP  RH WIND       PRES   REMARKS
DALTON*        MOSUNNY   86  68  54 W3        30.10S
LAWRENCEVILLE* MOSUNNY   88  64  45 CALM      30.12F
MARIETTA       PTSUNNY   87  66  50 VRB3      30.11S
KENNESAW*      PTSUNNY   88  63  42 CALM      30.12S
BLAIRSVILLE*     N/A     86  17   8 SE6       30.15F
$$

GAZ059>098-102>109-012100-
CENTRAL GEORGIA

CITY           SKY/WX    TMP DP  RH WIND       PRES   REMARKS
AUGUSTA-BUSH   PTSUNNY   89  67  47 VRB3      30.06F HX  92
AUGUSTA-DANIEL PTSUNNY   88  67  49 VRB3      30.09F HX  91
COLUMBUS       PTSUNNY   87  67  51 CALM      30.07S HX  90
MACON          MOSUNNY   88  70  55 E5        30.08F HX  93
ROBINS AFB     MOSUNNY   89  70  53 E6        30.07F HX  93


CITY           SKY/WX    TMP DP  RH WIND       PRES   REMARKS
LAGRANGE*      PTSUNNY   88  77  70 CALM      30.10S HX 101
SYLVANIA*      MOSUNNY   87  74  64 CALM      30.09S HX  95
MILLEDGEVILLE* MOSUNNY   88  68  51 CALM      30.08F HX  91
$$

GAZ099>101-110>166-012100-
SOUTH GEORGIA

CITY           SKY/WX    TMP DP  RH WIND       PRES   REMARKS
SAVANNAH       CLOUDY    86  73  65 SE12      30.07F HX  93
VALDOSTA       CLOUDY    81  74  79 NE7       30.07F
ALMA           CLOUDY    83  74  74 SE6       30.07F
ST SIMONS      CLOUDY    81  76  84 E6        30.07F
FT STEWART     CLOUDY    84  74  70 SE1       30.05F HX  91
ALBANY         PTSUNNY   92  69  47 NE5       30.07F HX  97
HUNTER AFB     PTSUNNY   85  79  81 SE8       30.05F HX  98
MOODY AFB      LGT RAIN  78  75  90 E5        30.06F
BRUNSWICK      CLOUDY    79  77  94 CALM      30.08F


CITY           SKY/WX    TMP DP  RH WIND       PRES   REMARKS
BAINBRIDGE*    CLOUDY    91  68  46 E8        30.04F HX  95
MOULTRIE*      MOSUNNY   88  70  55 E7        30.07F HX  92
VIDALIA*       CLOUDY    88  70  55 SE3       30.07F HX  92
WAYCROSS*      TSTM      83  78  84 SE8       30.08S HX  93
DOUGLAS*       CLOUDY    82  73  74 CALM      30.09F
$$


USA.gov is the U.S. government's official web portal to all federal, state and local government web resources and services.